Find Starlink 4512

NORAD ID: 53398 Int'l Des: 2022-097 Owner: SPXS Country: US Constellation: starlink operational
LEOCIRCULAR

Live-Position

3D-Globus wird geladen...

Über Starlink 4512

Beschreibung wird geladen...

Nächste Überflüge

Passes for default location (London). Set your location on the main map for personalized predictions.

Höhenverlauf

Loading altitude history...

Zweizeiliger Elementsatz

1 53398U 22097L 26139.29118041 .00000354 00000-0 40324-4 0 9994
2 53398 53.2156 167.1783 0001041 82.2447 277.8663 15.08838560209170
Epoch: 19. Mai 2026 • Age: 6 hours

Aktueller Status

Höhe 550.6 km
Geschwindigkeit 7.59 km/s
Subsatellitenpunkt -32.94°S, 53.39°W
Startdatum 10. Aug. 2022
Alter 3.7 years
Typ internet

Technische Details

Klassifizierung Payload
Masse 297.00 kg
Trockenmasse 275.00 kg
Gesamtmasse 297.00 kg
Länge 0.20 m
Durchmesser 2.80 m
Spannweite 9.00 m
Form Box + pan
Hersteller SPXS
Bus-Typ Starlink
Phasenstatus In Orbit
Besitzer/Staat SPXS/US

Most Searched